EW0975 Weather Reports


time (UTC)temp
C
wind
direction
speed
KPH
gust
KPH
rain 1hr
cm
rain 24hr
cm
rain mn
cm
humidity
%
barometer
mb
20260906141003 23 349 1.6 3.2 0.00 0.00 0.00 88 1017.8
20260906140508 23 32 0.0 3.2 0.00 0.00 0.00 89 1017.7
20260906140219 22 55 0.0 1.6 0.00 0.00 0.00 89 1017.6
20260906135503 22 3 0.0 1.6 0.00 0.00 0.00 89 1017.8
20260906135003 22 12 1.6 4.8 0.00 0.00 0.00 89 1018.1
20260906134718 22 52 1.6 4.8 0.00 0.00 0.00 89 1017.9
20260906134003 22 328 1.6 4.8 0.00 0.00 0.00 89 1017.9
20260906133503 22 247 1.6 4.8 0.00 0.00 0.00 89 1018.0
20260906133003 22 242 0.0 3.2 0.00 0.00 0.00 90 1017.8
20260906132504 22 8 1.6 4.8 0.00 0.00 0.00 90 1017.8
20260906132223 22 2 1.6 4.8 0.00 0.00 0.00 90 1017.9
20260906131503 22 14 1.6 4.8 0.00 0.00 0.00 90 1017.7
20260906131217 22 15 1.6 3.2 0.00 0.00 0.00 90 1017.9
20260906130718 22 26 1.6 3.2 0.00 0.00 0.00 90 1017.6
20260906130003 21 358 0.0 3.2 0.00 0.00 0.00 90 1017.7
20260906125503 21 286 0.0 3.2 0.00 0.00 0.00 90 1017.7
20260906125008 21 114 0.0 3.2 0.00 0.00 0.00 91 1017.7
20260906124503 21 104 0.0 1.6 0.00 0.00 0.00 91 1017.5
20260906124003 21 114 0.0 3.2 0.00 0.00 0.00 91 1017.2
20260906123503 21 124 0.0 3.2 0.00 0.00 0.00 91 1017.4
20260906123003 21 118 0.0 3.2 0.00 0.00 0.00 91 1017.1
20260906122503 21 85 0.0 3.2 0.00 0.00 0.00 91 1017.1
20260906122003 21 62 0.0 3.2 0.00 0.00 0.00 91 1017.1
20260906121503 21 176 0.0 4.8 0.00 0.00 0.00 91 1017.0
20260906121003 21 184 0.0 4.8 0.00 0.00 0.00 91 1017.1
20260906120503 21 92 0.0 3.2 0.00 0.00 0.00 91 1017.0
20260906120003 21 90 0.0 3.2 0.00 0.00 0.00 91 1016.7
20260906115503 21 104 0.0 3.2 0.00 0.00 0.00 91 1016.9
20260906115216 21 103 0.0 3.2 0.00 0.00 0.00 91 1016.9
20260906114717 21 104 0.0 1.6 0.00 0.00 0.00 91 1017.0
20260906114003 21 115 0.0 1.6 0.00 0.00 0.00 90 1016.9
20260906113503 21 61 0.0 1.6 0.00 0.00 0.00 90 1017.1
20260906113003 21 48 0.0 1.6 0.00 0.00 0.00 90 1016.8
20260906112503 21 91 0.0 1.6 0.00 0.00 0.00 90 1016.8
20260906112003 21 80 0.0 3.2 0.00 0.00 0.00 90 1016.7
20260906111723 21 100 0.0 3.2 0.00 0.00 0.00 90 1016.6
20260906111003 21 158 0.0 4.8 0.00 0.00 0.00 89 1016.8
20260906110503 21 141 0.0 4.8 0.00 0.00 0.00 89 1016.6
20260906110003 21 101 0.0 4.8 0.00 0.00 0.00 90 1016.5
20260906105504 21 89 0.0 9.7 0.00 0.00 0.00 90 1016.7
20260906105003 21 80 1.6 9.7 0.00 0.00 0.00 90 1016.3
20260906104503 21 12 0.0 3.2 0.00 0.00 0.00 90 1016.2
20260906104003 21 0 0.0 1.6 0.00 0.00 0.00 90 1016.3
20260906103723 21 43 0.0 4.8 0.00 0.00 0.00 90 1016.4
20260906103003 21 14 1.6 4.8 0.00 0.00 0.00 90 1016.3
20260906102503 21 4 1.6 3.2 0.00 0.00 0.00 90 1016.3
20260906102003 21 69 0.0 1.6 0.00 0.00 0.00 90 1016.3
20260906101503 21 46 0.0 1.6 0.00 0.00 0.00 90 1016.0
20260906101008 21 0 0.0 0.0 0.00 0.00 0.00 90 1016.0
20260906100503 21 35 0.0 1.6 0.00 0.00 0.00 90 1015.9
20260906100217 21 39 0.0 1.6 0.00 0.00 0.00 89 1015.9
20260906095718 21 43 0.0 1.6 0.00 0.00 0.00 89 1016.1
20260906095008 21 70 0.0 3.2 0.00 0.00 0.00 89 1016.0
20260906094508 21 77 0.0 4.8 0.00 0.00 0.00 89 1016.0
20260906094003 21 359 0.0 4.8 0.00 0.00 0.00 89 1016.0
20260906093503 21 341 0.0 3.2 0.00 0.00 0.00 89 1015.8
20260906093003 21 40 0.0 1.6 0.00 0.00 0.00 89 1016.0
20260906092503 21 165 0.0 4.8 0.00 0.00 0.00 89 1015.8
20260906092008 22 167 0.0 4.8 0.00 0.00 0.00 89 1016.0
20260906091503 22 277 0.0 1.6 0.00 0.00 0.00 89 1016.0
20260906091003 22 282 0.0 1.6 0.00 0.00 0.00 89 1016.0
20260906090503 22 267 0.0 1.6 0.00 0.00 0.00 89 1015.8
20260906090003 22 0 0.0 1.6 0.00 0.00 0.00 89 1015.7
20260906085503 22 81 0.0 4.8 0.00 0.00 0.00 89 1015.8
20260906085003 22 61 0.0 4.8 0.00 0.00 0.00 89 1015.6
20260906084503 22 44 0.0 3.2 0.00 0.00 0.00 89 1015.7
20260906084005 22 37 0.0 3.2 0.00 0.00 0.00 89 1015.7
20260906083503 22 83 0.0 3.2 0.00 0.00 0.00 89 1015.5
20260906083003 22 117 0.0 1.6 0.00 0.00 0.00 89 1015.7
20260906082503 22 104 0.0 3.2 0.00 0.00 0.00 88 1015.5
20260906082003 22 118 0.0 3.2 0.00 0.00 0.00 88 1015.6
20260906081718 22 140 0.0 3.2 0.00 0.00 0.00 88 1015.4
20260906081219 22 220 0.0 1.6 0.00 0.00 0.00 88 1015.7
20260906080503 23 212 0.0 3.2 0.00 0.00 0.00 88 1015.6
20260906080003 23 192 0.0 3.2 0.00 0.00 0.00 88 1015.3
20260906075503 23 67 0.0 3.2 0.00 0.00 0.00 88 1015.3
20260906075003 23 347 0.0 3.2 0.00 0.00 0.00 88 1015.6
20260906074503 23 215 0.0 3.2 0.00 0.00 0.00 88 1015.5
20260906074003 23 70 0.0 3.2 0.00 0.00 0.00 88 1015.7
20260906073503 23 47 0.0 3.2 0.00 0.00 0.00 88 1015.4
20260906073223 23 41 0.0 1.6 0.00 0.00 0.00 88 1015.7
20260906072720 23 21 0.0 1.6 0.00 0.00 0.00 88 1015.7
20260906072008 23 345 0.0 3.2 0.00 0.00 0.00 88 1015.6
20260906071503 23 340 0.0 3.2 0.00 0.00 0.00 88 1015.9
20260906071003 23 285 0.0 3.2 0.00 0.00 0.00 88 1015.6
20260906070719 23 188 0.0 3.2 0.00 0.00 0.00 88 1015.7
20260906070003 23 9 0.0 3.2 0.00 0.00 0.00 88 1015.8
20260906065503 23 14 1.6 3.2 0.00 0.00 0.00 88 1015.8
20260906065003 23 349 0.0 3.2 0.00 0.00 0.00 88 1015.7
20260906064508 23 352 0.0 1.6 0.00 0.00 0.00 88 1015.7
20260906064003 23 68 0.0 3.2 0.00 0.00 0.00 88 1015.8
20260906063503 23 74 0.0 3.2 0.00 0.00 0.00 88 1015.7
20260906063003 23 70 0.0 1.6 0.00 0.00 0.00 88 1015.8
20260906062503 23 71 0.0 1.6 0.00 0.00 0.00 88 1015.7
20260906062003 23 68 0.0 1.6 0.00 0.00 0.00 88 1015.6
20260906061508 23 64 0.0 1.6 0.00 0.00 0.00 88 1015.6
20260906061218 23 61 0.0 1.6 0.00 0.00 0.00 88 1015.4
20260906060719 23 61 0.0 1.6 0.00 0.00 0.00 88 1015.6
20260906060003 24 61 0.0 1.6 0.00 0.00 0.00 87 1015.8
20260906055503 24 0 0.0 0.0 0.00 0.00 0.00 87 1015.6
20260906055218 24 0 0.0 1.6 0.00 0.00 0.00 87 1015.6
20260906054503 25 60 0.0 3.2 0.00 0.00 0.00 86 1015.6
20260906054004 25 60 0.0 3.2 0.00 0.00 0.00 86 1015.6
20260906053503 25 57 0.0 3.2 0.00 0.00 0.00 86 1015.5
20260906053008 25 41 0.0 3.2 0.00 0.00 0.00 85 1015.4
20260906052503 25 51 0.0 1.6 0.00 0.00 0.00 85 1015.6
20260906052216 25 42 0.0 3.2 0.00 0.00 0.00 85 1015.6
20260906051503 25 52 0.0 3.2 0.00 0.00 0.00 86 1015.5
20260906051003 25 64 0.0 3.2 0.00 0.00 0.00 86 1015.3
20260906050503 25 87 0.0 1.6 0.00 0.00 0.00 86 1015.0
20260906050003 25 97 0.0 3.2 0.00 0.00 0.00 86 1015.0
20260906045717 25 88 0.0 3.2 0.00 0.00 0.00 86 1015.0
20260906045003 26 72 1.6 3.2 0.00 0.00 0.00 86 1014.9
20260906044503 26 68 0.0 3.2 0.00 0.00 0.00 86 1014.8
20260906044003 26 59 0.0 3.2 0.00 0.00 0.00 85 1014.8
20260906043503 26 70 0.0 3.2 0.00 0.00 0.00 85 1014.8
20260906043003 26 79 1.6 3.2 0.00 0.00 0.00 85 1014.6
20260906042503 26 146 1.6 3.2 0.00 0.00 0.00 84 1014.6
20260906042008 26 175 0.0 3.2 0.00 0.00 0.00 84 1014.8
20260906041505 26 138 0.0 3.2 0.00 0.00 0.00 84 1014.7
20260906041008 27 81 0.0 3.2 0.00 0.00 0.00 83 1014.8
20260906040503 27 71 0.0 3.2 0.00 0.00 0.00 83 1014.8
20260906040003 27 143 1.6 6.4 0.00 0.00 0.00 83 1014.7
20260906035503 27 147 1.6 6.4 0.00 0.00 0.00 83 1014.6
20260906035003 27 89 1.6 3.2 0.00 0.00 0.00 83 1014.3
20260906034503 27 67 0.0 3.2 0.00 0.00 0.00 83 1014.4
20260906034003 27 72 0.0 3.2 0.00 0.00 0.00 83 1014.2
20260906033503 27 188 0.0 3.2 0.00 0.00 0.00 83 1014.6
20260906033003 27 185 0.0 3.2 0.00 0.00 0.00 83 1014.3
20260906032503 27 119 0.0 3.2 0.00 0.00 0.00 83 1014.3
20260906032003 27 343 0.0 4.8 0.00 0.00 0.00 83 1014.2
20260906031503 27 68 1.6 4.8 0.00 0.00 0.00 83 1014.4
20260906031003 27 74 1.6 4.8 0.00 0.00 0.00 83 1014.0
20260906030503 27 27 0.0 3.2 0.00 0.00 0.00 83 1013.9
20260906030003 27 360 0.0 1.6 0.00 0.00 0.00 83 1014.0
20260906025503 27 0 0.0 0.0 0.00 0.00 0.00 82 1013.9
20260906025003 27 0 0.0 1.6 0.00 0.00 0.00 81 1013.9
20260906024508 28 33 0.0 1.6 0.00 0.00 0.00 80 1014.0
20260906024219 28 33 0.0 1.6 0.00 0.00 0.00 80 1014.0
20260906023503 28 33 0.0 3.2 0.00 0.00 0.00 79 1014.0
20260906023003 28 33 1.6 3.2 0.00 0.00 0.00 78 1013.8
20260906022503 28 21 1.6 3.2 0.00 0.00 0.00 78 1013.8
20260906022003 28 358 0.0 3.2 0.00 0.00 0.00 78 1013.6
20260906021503 28 346 0.0 3.2 0.00 0.00 0.00 77 1013.6
20260906021003 28 347 1.6 3.2 0.00 0.00 0.00 77 1013.7
20260906020503 29 357 1.6 4.8 0.00 0.00 0.00 77 1013.7
20260906020003 29 14 1.6 4.8 0.00 0.00 0.00 76 1013.5
20260906015503 28 30 0.0 4.8 0.00 0.00 0.00 77 1013.5
20260906015220 28 41 0.0 3.2 0.00 0.00 0.00 76 1013.4
20260906014718 28 41 0.0 1.6 0.00 0.00 0.00 76 1013.5
20260906014003 29 41 0.0 1.6 0.00 0.00 0.00 75 1013.0
20260906013503 29 41 0.0 1.6 0.00 0.00 0.00 74 1013.0
20260906013003 30 40 0.0 1.6 0.00 0.00 0.00 73 1012.9
20260906012503 30 29 1.6 4.8 0.00 0.00 0.00 72 1013.0
20260906012008 30 13 1.6 4.8 0.00 0.00 0.00 72 1013.0
20260906011503 30 360 1.6 4.8 0.00 0.00 0.00 71 1013.0
20260906011003 30 358 1.6 4.8 0.00 0.00 0.00 71 1012.8
20260906010717 30 356 1.6 4.8 0.00 0.00 0.00 71 1013.0
20260906010003 30 355 1.6 4.8 0.00 0.00 0.00 70 1012.7
20260906005503 31 346 1.6 4.8 0.00 0.00 0.00 70 1012.7
20260906005003 31 346 1.6 4.8 0.00 0.00 0.00 69 1012.9
20260906004503 31 10 1.6 4.8 0.00 0.00 0.00 69 1012.5
20260906004003 31 26 1.6 4.8 0.00 0.00 0.00 68 1012.3
20260906003503 31 354 1.6 4.8 0.00 0.00 0.00 68 1012.4
20260906003008 31 359 1.6 6.4 0.00 0.00 0.00 68 1012.5
20260906002503 31 13 1.6 6.4 0.00 0.00 0.00 67 1012.5
20260906002003 31 4 1.6 3.2 0.00 0.00 0.00 67 1012.5
20260906001503 32 355 0.0 3.2 0.00 0.00 0.00 67 1012.5
20260906001003 32 4 0.0 3.2 0.00 0.00 0.00 67 1012.3
20260906000503 32 40 1.6 3.2 0.00 0.00 0.00 66 1012.4
20260906000003 32 48 1.6 4.8 0.00 0.00 0.00 65 1012.6
20260905235503 32 23 1.6 4.8 0.00 0.00 0.00 64 1012.6
20260905235003 33 17 1.6 4.8 0.00 0.00 0.00 64 1012.5
20260905234503 33 34 1.6 6.4 0.00 0.00 0.00 63 1012.9
20260905234005 33 43 1.6 6.4 0.00 0.00 0.00 63 1012.6
20260905233719 33 41 1.6 6.4 0.00 0.00 0.00 62 1012.5
20260905233003 34 37 3.2 9.7 0.00 0.00 0.00 61 1012.6
20260905232503 34 26 3.2 9.7 0.00 0.00 0.00 59 1012.6
20260905232003 34 15 3.2 9.7 0.00 0.00 0.00 59 1012.5
20260905231508 35 23 3.2 6.4 0.00 0.00 0.00 58 1012.5
20260905231008 35 27 3.2 9.7 0.00 0.00 0.00 57 1012.3
20260905230716 35 24 3.2 11.3 0.00 0.00 0.00 57 1012.6
20260905230003 35 27 3.2 11.3 0.00 0.00 0.00 56 1012.6
20260905225508 35 10 1.6 9.7 0.00 0.00 0.00 56 1012.5
20260905225003 35 16 3.2 9.7 0.00 0.00 0.00 53 1012.5
20260905224503 35 21 3.2 9.7 0.00 0.00 0.00 52 1012.5
20260905224217 35 18 3.2 12.9 0.00 0.00 0.00 51 1012.3
20260905223503 36 354 3.2 12.9 0.00 0.00 0.00 51 1012.3
20260905223219 36 352 3.2 12.9 0.00 0.00 0.00 51 1012.2
20260905222503 36 344 3.2 11.3 0.00 0.00 0.00 51 1012.4
20260905222008 36 350 4.8 11.3 0.00 0.00 0.00 51 1012.2
20260905221503 36 353 3.2 11.3 0.00 0.00 0.00 51 1012.4
20260905221003 36 342 4.8 12.9 0.00 0.00 0.00 51 1012.3
20260905220503 36 351 4.8 12.9 0.00 0.00 0.00 51 1012.4
20260905220003 36 356 4.8 12.9 0.00 0.00 0.00 50 1012.5
20260905215508 36 347 4.8 11.3 0.00 0.00 0.00 50 1012.5
20260905215003 36 359 4.8 11.3 0.00 0.00 0.00 50 1012.6
20260905214503 36 357 4.8 12.9 0.00 0.00 0.00 49 1012.5
20260905214003 36 353 4.8 12.9 0.00 0.00 0.00 48 1012.6
20260905213718 36 356 4.8 11.3 0.00 0.00 0.00 48 1012.4
20260905213219 36 3 3.2 11.3 0.00 0.00 0.00 48 1012.4
20260905212508 36 4 4.8 14.5 0.00 0.00 0.00 48 1012.4
20260905212005 37 1 4.8 14.5 0.00 0.00 0.00 47 1012.6
20260905211503 37 7 4.8 14.5 0.00 0.00 0.00 47 1012.1
20260905211003 37 13 4.8 11.3 0.00 0.00 0.00 48 1012.3
20260905210503 36 10 4.8 11.3 0.00 0.00 0.00 48 1012.5
20260905210004 36 9 4.8 14.5 0.00 0.00 0.00 48 1012.5
20260905205503 37 14 4.8 14.5 0.00 0.00 0.00 49 1012.6
20260905205003 37 12 4.8 11.3 0.00 0.00 0.00 49 1012.5
20260905204503 37 360 4.8 11.3 0.00 0.00 0.00 48 1012.7
20260905204003 37 3 4.8 11.3 0.00 0.00 0.00 49 1012.8
20260905203503 37 2 4.8 11.3 0.00 0.00 0.00 49 1012.7
20260905203003 37 11 4.8 11.3 0.00 0.00 0.00 49 1012.7
20260905202503 37 5 4.8 11.3 0.00 0.00 0.00 50 1012.9
20260905202003 37 358 3.2 11.3 0.00 0.00 0.00 50 1012.9
20260905201505 37 12 4.8 11.3 0.00 0.00 0.00 50 1013.0
20260905201003 37 20 4.8 11.3 0.00 0.00 0.00 47 1012.9
20260905200503 37 9 4.8 11.3 0.00 0.00 0.00 48 1012.8
20260905200225 37 7 4.8 11.3 0.00 0.00 0.00 47 1012.7
20260905195503 37 340 4.8 17.7 0.00 0.00 0.00 47 1013.2
20260905195004 37 338 4.8 17.7 0.00 0.00 0.00 47 1012.9
20260905194503 38 345 4.8 17.7 0.00 0.00 0.00 46 1012.9
20260905194008 38 323 4.8 14.5 0.00 0.00 0.00 46 1013.3
20260905193717 38 314 4.8 14.5 0.00 0.00 0.00 45 1012.9
20260905193003 38 329 6.4 14.5 0.00 0.00 0.00 45 1013.4
20260905192508 38 327 6.4 14.5 0.00 0.00 0.00 44 1013.5
20260905192216 38 327 4.8 14.5 0.00 0.00 0.00 44 1013.4
20260905191508 38 1 4.8 12.9 0.00 0.00 0.00 43 1013.5
20260905191218 38 360 3.2 12.9 0.00 0.00 0.00 44 1013.3
20260905190503 38 337 4.8 14.5 0.00 0.00 0.00 45 1013.2
20260905190004 38 337 4.8 14.5 0.00 0.00 0.00 45 1013.2
20260905185508 38 12 3.2 14.5 0.00 0.00 0.00 46 1013.5
20260905185218 38 16 3.2 12.9 0.00 0.00 0.00 46 1013.4
20260905184503 38 5 4.8 14.5 0.00 0.00 0.00 47 1013.6
20260905184003 38 15 3.2 14.5 0.00 0.00 0.00 47 1013.7
20260905183717 38 7 3.2 14.5 0.00 0.00 0.00 48 1013.7
20260905183008 38 331 4.8 17.7 0.00 0.00 0.00 46 1013.7
20260905182503 38 347 4.8 17.7 0.00 0.00 0.00 46 1013.8
20260905182224 38 349 3.2 11.3 0.00 0.00 0.00 46 1013.7
20260905181503 38 330 3.2 16.1 0.00 0.00 0.00 45 1013.8
20260905181003 38 344 4.8 17.7 0.00 0.00 0.00 46 1013.8
20260905180503 38 345 3.2 17.7 0.00 0.00 0.00 47 1013.9
20260905180003 38 354 3.2 11.3 0.00 0.00 0.00 47 1014.0
20260905175503 38 328 3.2 11.3 0.00 0.00 0.00 46 1014.0
20260905175003 38 335 4.8 14.5 0.00 0.00 0.00 47 1014.0
20260905174503 38 357 4.8 14.5 0.00 0.00 0.00 47 1014.3
20260905174003 38 337 3.2 14.5 0.00 0.00 0.00 48 1014.0
20260905173503 37 328 3.2 12.9 0.00 0.00 0.00 50 1014.3
20260905173003 37 6 3.2 12.9 0.00 0.00 0.00 49 1014.2
20260905172503 37 16 1.6 6.4 0.00 0.00 0.00 49 1014.2
20260905172003 37 355 1.6 6.4 0.00 0.00 0.00 52 1014.3
20260905171716 36 357 1.6 6.4 0.00 0.00 0.00 53 1014.3
20260905171003 37 357 3.2 11.3 0.00 0.00 0.00 52 1014.0
20260905170503 37 356 3.2 11.3 0.00 0.00 0.00 51 1014.3
20260905170008 37 345 3.2 11.3 0.00 0.00 0.00 51 1014.5
20260905165503 37 351 3.2 12.9 0.00 0.00 0.00 52 1014.6
20260905165217 37 356 4.8 12.9 0.00 0.00 0.00 53 1014.4
20260905164508 37 1 4.8 12.9 0.00 0.00 0.00 52 1014.3
20260905164003 37 353 3.2 9.7 0.00 0.00 0.00 51 1014.7
20260905163503 36 264 3.2 11.3 0.00 0.00 0.00 53 1014.6
20260905163008 36 250 3.2 11.3 0.00 0.00 0.00 54 1014.5
20260905162503 36 355 1.6 4.8 0.00 0.00 0.00 56 1014.4
20260905162003 36 339 1.6 6.4 0.00 0.00 0.00 56 1014.5
20260905161503 36 292 3.2 11.3 0.00 0.00 0.00 56 1014.4
20260905161008 36 244 3.2 11.3 0.00 0.00 0.00 56 1014.6
20260905160718 36 210 3.2 11.3 0.00 0.00 0.00 56 1014.5
20260905160223 36 197 3.2 9.7 0.00 0.00 0.00 56 1014.6
20260905155503 36 321 3.2 11.3 0.00 0.00 0.00 57 1014.7
20260905155008 35 329 4.8 11.3 0.00 0.00 0.00 57 1014.6
20260905154718 35 318 3.2 11.3 0.00 0.00 0.00 59 1014.7
20260905154003 35 261 3.2 11.3 0.00 0.00 0.00 57 1014.6
20260905153503 35 272 3.2 6.4 0.00 0.00 0.00 57 1014.6
20260905153003 35 297 1.6 6.4 0.00 0.00 0.00 58 1014.6
20260905152503 34 319 1.6 6.4 0.00 0.00 0.00 58 1014.6
20260905152003 34 313 1.6 6.4 0.00 0.00 0.00 59 1014.7
20260905151503 34 281 1.6 6.4 0.00 0.00 0.00 60 1014.5
20260905151003 33 261 3.2 4.8 0.00 0.00 0.00 60 1014.5
20260905150503 33 235 3.2 4.8 0.00 0.00 0.00 61 1014.6
20260905150222 33 214 1.6 4.8 0.00 0.00 0.00 61 1014.6
20260905145720 33 211 1.6 4.8 0.00 0.00 0.00 64 1014.4
20260905145003 32 242 1.6 4.8 0.00 0.00 0.00 64 1014.4
20260905144503 32 278 3.2 6.4 0.00 0.00 0.00 64 1014.4
20260905144008 32 303 3.2 6.4 0.00 0.00 0.00 64 1014.7
20260905143503 32 325 1.6 6.4 0.00 0.00 0.00 65 1014.6
20260905143008 32 299 1.6 6.4 0.00 0.00 0.00 66 1014.4
20260905142503 31 210 1.6 6.4 0.00 0.00 0.00 66 1014.3
20260905142218 31 195 1.6 4.8 0.00 0.00 0.00 67 1014.6
20260905141503 31 226 1.6 6.4 0.00 0.00 0.00 67 1014.2